Location: Auckland
(36.8670°S, 174.7670°E)
Time: 14:05:37
(UTC+13:00)

Daily predictions for brighter satellites

Satellite Brightness Start Highest point End
(mag) Time Altitude Azimuth Time Altitude Azimuth Time Altitude Azimuth
Cosmos 1869 4.1 21:00:42 10° NNE 21:04:17 32° E 21:07:55 10° SSE
Cosmos 1655 Rocket 4.1 20:58:41 10° N 21:05:02 89° E 21:11:25 10° S
Cosmos 1271 Rocket 3.1 21:01:43 10° S 21:05:42 51° E 21:09:38 10° NNE
HJ-1C 3.6 21:02:22 10° SSE 21:05:44 51° E 21:09:03 10° N
Cosmos 2360 Rocket 4.0 21:04:58 10° ENE 21:06:35 11° E 21:08:11 10° E
H-2A R/B 4.5 20:44:11 10° W 21:06:51 33° NW 21:11:35 10° NNE
Cosmos 1666 Rocket 4.0 21:04:38 10° S 21:09:01 46° E 21:13:19 10° NNE
Cosmos 1980 Rocket 2.6 21:03:57 10° NNW 21:09:39 72° WSW 21:15:24 10° SSE
Tiangong 2 1.9 21:06:37 10° WSW 21:09:41 43° NNW 21:12:43 10° NE
Meteor 1-27 4.4 21:04:22 10° N 21:10:11 89° W 21:16:08 10° S
Lacrosse 5 2.3 21:12:05 10° SSW 21:17:08 52° SE 21:22:00 11° ENE
Cosmos 2228 Rocket 4.4 21:13:52 10° NE 21:17:16 22° E 21:20:41 10° SE
Cosmos 1805 Rocket 3.8 21:14:02 10° SSW 21:18:27 72° W 21:22:46 10° N
Cosmos 2322 Rocket 2.7 21:14:36 10° N 21:19:44 37° ENE 21:24:56 10° SE
DELTA 2 R/B(2) 3.5 21:16:46 10° WNW 21:19:58 80° SSW 21:21:39 10° ESE
MOS 1 4.3 21:14:25 10° SSE 21:20:14 82° ENE 21:25:57 10° NNW
Cosmos 1741 Rocket 4.2 21:16:13 10° NNW 21:21:33 81° WSW 21:26:58 10° SSE
ADEOS Rocket 4.0 21:18:59 10° ENE 21:23:30 25° ESE 21:27:58 10° SSE
CZ-2D R/B 3.7 21:25:14 10° S 21:29:11 67° WSW 21:33:04 10° NNW
Cosmos 1515 Rocket 4.2 21:25:23 10° NNE 21:29:33 38° E 21:33:45 10° SSE
USA 186 1.8 21:27:02 10° SSE 21:29:46 39° E 21:32:16 10° N
Cosmos 1939 Rocket 2.9 21:30:33 10° SSE 21:34:47 87° E 21:38:58 10° NNW
Envisat 4.4 21:30:09 10° S 21:35:01 43° WSW 21:39:49 10° NW
USA 32 4.3 21:32:17 10° N 21:37:32 75° W 21:42:52 10° S
NOAA 11 4.3 21:32:49 10° SSE 21:38:20 61° E 21:43:47 10° N
Meteor 2-10 Rocket 4.2 21:34:23 10° NNW 21:39:24 59° WSW 21:44:39 10° S
ARGOS 4.4 21:35:47 10° SE 21:39:45 20° E 21:42:01 16° NE
Cosmos 2227 4.2 21:35:32 10° SSW 21:41:15 70° ESE 21:46:04 14° NNE
Resurs 01 Rocket 2.7 21:39:40 10° SE 21:43:27 26° E 21:45:44 18° NE
Cosmos 292 Rocket 4.1 21:39:18 10° SSW 21:44:06 69° WNW 21:48:51 10° N
Cosmos 2263 Rocket 2.8 21:39:58 10° S 21:45:22 42° ESE 21:49:11 18° NE
Aureole 3 Rocket 2.8 21:45:29 10° S 21:49:05 83° E 21:53:47 10° N
CZ-2C R/B 3.0 21:48:35 17° NE 21:52:40 50° ESE 21:57:53 10° S
Cosmos 1151 Rocket 3.0 21:50:09 10° N 21:54:26 89° W 21:58:50 10° S
Resurs 1-3 3.9 21:52:21 10° SSE 21:56:38 44° E 21:59:43 17° NNE
Cosmos 2208 Rocket 4.0 22:00:00 10° SSW 22:05:16 87° WNW 22:09:01 20° NNE
SPOT 3 Rocket 4.4 22:01:07 10° S 22:06:12 51° WSW 22:11:11 10° NNW
Cosmos 2315 Rocket 4.0 22:00:14 10° S 22:06:39 88° E 22:12:14 14° N
H-2A R/B 3.1 22:08:02 10° NW 22:11:19 32° NNE 22:23:11 10° E
Cosmos 1356 4.5 22:12:25 28° E 22:12:25 28° E 22:15:12 10° SSE
Cosmos 540 Rocket 4.2 22:12:26 10° S 22:17:19 38° ESE 22:19:09 29° ENE
ATLAS 3B R/B 3.9 22:18:33 21° ENE 22:18:33 21° ENE 22:23:17 10° ESE
USA 238 DEB 4.1 22:15:23 10° N 22:22:15 43° ENE 22:29:04 10° SE
USA 238 4.1 22:15:30 10° N 22:22:21 43° ENE 22:29:09 10° SE
BREEZE-M DEB (TANK) 3.9 22:23:42 10° W 22:27:39 29° SSW 22:29:45 10° SE
Cosmos 2237 4.4 22:25:19 25° N 22:28:22 50° ENE 22:33:54 10° SSE
Cosmos 1862 3.4 22:25:28 10° SSW 22:29:32 72° W 22:31:07 35° N
Cosmos 1763 Rocket 3.8 22:26:31 10° SSW 22:31:43 62° WNW 22:34:29 27° N
Atlas Centaur 2 3.2 22:23:55 10° WNW 22:32:10 55° N 22:36:40 28° ENE
Cosmos 1869 Rocket 3.9 22:31:53 10° S 22:36:08 45° E 22:36:30 43° E
ERBS 4.3 22:33:52 10° S 22:36:33 20° SE 22:37:00 19° SE
Nimbus 7 Rocket 4.5 22:38:53 38° NE 22:41:08 64° ESE 22:47:06 10° S
Cosmos 1486 Rocket 4.0 22:36:54 14° NNW 22:41:29 84° WSW 22:46:48 10° SSE
SL-08 R/B 4.4 22:39:25 24° N 22:43:23 87° E 22:49:37 10° S
H-2A R/B 1.8 22:38:38 10° SSE 22:43:43 79° ENE 22:45:39 38° N
SL-16 R/B 3.7 22:39:10 10° NW 22:44:25 37° WSW 22:49:42 10° S
ERS-1 Rocket 4.3 22:40:54 10° SE 22:44:02 23° ESE 22:44:02 23° ESE
Mayak 0.4 22:46:27 21° ESE 22:46:27 21° ESE 22:49:19 10° SSE
Cosmos 2360 Rocket 2.2 22:44:02 10° NNW 22:49:44 82° WSW 22:55:29 10° SSE
Cosmos 1707 Rocket 3.5 22:55:32 65° E 22:55:32 65° E 22:59:48 10° SSE
Meteor 1-26 Rocket 4.2 22:56:00 47° NNE 22:57:40 71° E 23:03:26 10° SSE
Cosmos 1933 4.0 22:58:16 39° NW 22:59:26 53° W 23:03:32 10° S
Lacrosse 5 3.6 22:55:48 10° WSW 22:59:45 23° WNW 23:01:12 20° NW
NOSS 2-1 (E) 4.4 22:52:31 10° SSW 23:00:02 68° SE 23:01:31 50° ENE
Cosmos 1242 Rocket 3.8 22:56:52 10° SSW 23:00:21 36° W 23:00:53 34° WNW
Helios 1B rocket 2.5 23:00:45 69° SE 23:00:45 69° SE 23:04:44 10° S
Cosmos 1844 Rocket 3.4 22:56:31 10° S 23:01:48 38° ESE 23:02:38 36° E
COSMOS 2428 3.2 23:03:03 42° E 23:03:03 42° E 23:07:58 10° SE
Cosmos 841 Rocket 4.1 22:57:23 10° SSW 23:02:33 51° WNW 23:04:13 37° NNW
Cosmos 2322 Rocket 4.1 22:58:57 10° WNW 23:03:48 29° WSW 23:08:44 10° S
NOSS 3-2 (C) 4.4 23:03:17 41° NE 23:04:41 45° ENE 23:12:01 10° SE
Cosmos 1745 Rocket 4.1 23:05:15 32° NNW 23:08:25 78° W 23:14:51 10° S
Cosmos 968 Rocket 3.4 23:08:48 64° E 23:08:48 64° E 23:13:56 10° SSE
ADEOS Rocket 3.9 23:05:50 22° NNW 23:08:51 37° W 23:13:58 10° SSW
Cosmos 1386 Rocket 4.4 23:09:16 42° N 23:11:31 86° W 23:17:42 10° S
Cosmos 1709 Rocket 4.0 23:15:10 56° NE 23:15:58 61° E 23:22:10 10° SSE
Terra 3.8 23:15:16 10° SE 23:16:50 17° ESE 23:16:50 17° ESE
Cosmos 1633 4.1 23:16:15 10° SSW 23:19:15 32° W 23:19:15 32° W
Resurs 01 Rocket 3.7 23:16:09 10° SSW 23:19:48 25° WSW 23:23:18 11° WNW
ARGOS 4.1 23:15:01 10° S 23:20:10 45° WSW 23:23:31 20° NW
Cosmos 2322 3.9 23:18:11 31° NW 23:20:56 69° WSW 23:26:39 10° SSE
Spot 2 Rocket 4.4 23:17:49 10° S 23:22:45 46° WSW 23:25:12 26° NW
MetOp-B 4.2 23:19:27 10° S 23:24:53 75° WSW 23:25:59 56° NW
Cosmos 1606 3.6 23:25:39 49° SW 23:25:39 49° SW 23:28:51 10° S
Meteor 1-25 Rocket 4.2 23:19:20 10° S 23:25:16 88° E 23:25:57 72° NNE
CENTAUR R/B 3.8 23:28:52 33° E 23:28:52 33° E 23:33:50 10° SE
Cosmos 2263 Rocket 3.9 23:24:31 10° SW 23:28:57 24° W 23:30:54 20° NW
Timation 1 Rocket 4.4 23:25:02 10° SSW 23:31:03 68° WNW 23:31:47 62° NNW
Cosmos 2333 Rocket 2.4 23:34:59 59° ESE 23:34:59 59° ESE 23:40:01 10° SSE
Cosmos 2219 Rocket 2.2 23:36:23 67° ESE 23:36:23 67° ESE 23:41:32 10° SSE
Cosmos 2278 Rocket 3.8 23:33:42 10° S 23:38:05 22° ESE 23:38:32 22° ESE
IRAS Rocket 4.4 23:33:11 10° S 23:38:47 68° WSW 23:39:48 56° NW
Cosmos 2181 Rocket 4.1 23:33:35 10° S 23:39:44 58° E 23:39:48 58° E
SeaSat 1 2.7 23:39:45 10° SSE 23:44:00 65° SSE 23:44:00 65° SSE
Cosmos 2237 Rocket 3.6 23:51:01 27° ESE 23:51:01 27° ESE 23:53:56 10° SE
Cosmos 1818 4.5 23:47:56 28° WNW 23:50:24 46° SW 23:55:35 10° SSE
